Startpagina
METAR-TAF:

METAR-TAF

Vliegvelden :

Juigalpa, Nicaragua

breedte: 12-06N, lengte: 085-22W, hoogte: 90 m

Actueel weer

Dit bericht is 55 minuten geleden gemaakt, om 22:00 UTC
Wind 8 kt uit het oosten
Temperatuur 29°C
Vochtigheid 58%
Druk 1011 hPa
Zicht 10 km of meer
Verspreide wolken op 2000 ft
Verspreide wolken op 8000 ft

METAR: MNJU 232200Z 08008KT 9999 SCT020 SCT080 29/20 Q1011

Tijdstip: 16:55 (22:55 UTC)


TAF: ontbreekt

Waarnemingen en weersverwachtingen van meer dan 4000 vliegvelden (METAR en TAF).

De beschikbare stations zijn de gele en rode punten op de kaart.

Ga met uw muis naar het station om de naam te zien.

Klik dan om waarnemingen en weersverwachtingen te zien.

kaart wijzigen: klik op de groene knoppen met een zwart kruis om in te zoomen, op de groene knop met een streepje om uit te zoomen of op de groene pijlen voor aangrenzende kaarten.


METAR-TAF: